EW3511 Weather Reports


Display with metric or nautical units.
time (UTC)temp
F
wind
direction
speed
MPH
gust
MPH
rain 1hr
in
rain 24hr
in
rain mn
in
humidity
%
barometer
mb
20260503060116 59 0.0 0.0 0.00 0.00 0.00 62 1015.3
20260503055056 60 0.0 0.0 0.00 0.00 0.00 60 1015.3
20260503054057 54 0.0 0.0 0.00 0.00 0.00 68 1015.2
20260503053058 51 0.0 0.0 0.00 0.00 0.00 74 1015.2
20260503052117 50 93 0.0 1.0 0.00 0.00 0.00 75 1015.4
20260503051118 48 0.0 0.0 0.00 0.00 0.00 78 1015.3
20260503050138 50 0.0 0.0 0.00 0.00 0.00 76 1015.4
20260503045058 48 0.0 0.0 0.00 0.00 0.00 79 1015.4
20260503044059 46 122 0.0 1.0 0.00 0.00 0.00 82 1015.3
20260503043101 44 0.0 0.0 0.00 0.00 0.00 87 1015.2
20260503042032 43 0.0 0.0 0.00 0.00 0.00 89 1015.2
20260503041032 42 0.0 0.0 0.00 0.00 0.00 89 1015.2
20260503040036 42 0.0 0.0 0.00 0.00 0.00 89 1015.1
20260503035033 42 0.0 0.0 0.00 0.00 0.00 89 1015.1
20260503034054 42 0.0 0.0 0.00 0.00 0.00 89 1015.2
20260503033034 42 0.0 0.0 0.00 0.00 0.00 88 1015.1
20260503032035 42 0.0 0.0 0.00 0.00 0.00 89 1015.2
20260503031035 42 0.0 0.0 0.00 0.00 0.00 88 1015.1
20260503030035 43 93 0.0 1.0 0.00 0.00 0.00 87 1015.1
20260503025035 43 0.0 0.0 0.00 0.00 0.00 87 1015.0
20260503024056 43 0.0 0.0 0.00 0.00 0.00 87 1015.0
20260503023036 44 0.0 0.0 0.00 0.00 0.00 85 1015.1
20260503022037 43 72 0.0 1.0 0.00 0.00 0.00 87 1015.1
20260503021037 44 87 0.0 1.0 0.00 0.00 0.00 85 1015.1
20260503020118 44 0.0 0.0 0.00 0.00 0.00 85 1015.2
20260503015038 44 0.0 0.0 0.00 0.00 0.00 84 1015.2
20260503014039 44 87 0.0 1.0 0.00 0.00 0.00 84 1015.3
20260503013039 44 0.0 0.0 0.00 0.00 0.00 83 1015.2
20260503012039 44 0.0 0.0 0.00 0.00 0.00 83 1015.2
20260503011039 45 0.0 0.0 0.00 0.00 0.00 83 1015.4
20260503010100 45 0.0 0.0 0.00 0.00 0.00 81 1015.4
20260503005041 45 85 0.0 1.0 0.00 0.00 0.00 81 1015.5
20260503004041 45 0.0 0.0 0.00 0.00 0.00 82 1015.5
20260503003042 46 0.0 0.0 0.00 0.00 0.00 80 1015.4
20260503002042 47 0.0 0.0 0.00 0.00 0.00 79 1015.6
20260503001043 46 0.0 0.0 0.00 0.00 0.00 79 1015.7
20260503000043 47 0.0 0.0 0.00 0.00 0.00 78 1015.8
20260502235103 47 0.0 0.0 0.00 0.00 0.00 78 1015.8
20260502234104 48 0.0 0.0 0.00 0.00 0.00 78 1015.9
20260502233044 47 0.0 0.0 0.00 0.00 0.00 78 1016.1
20260502232044 48 0.0 0.0 0.00 0.00 0.00 77 1016.2
20260502231044 48 0.0 0.0 0.00 0.00 0.00 78 1016.2
20260502230045 48 0.0 0.0 0.00 0.00 0.00 77 1016.2
20260502225047 49 0.0 0.0 0.00 0.00 0.00 75 1016.2
20260502224046 48 0.0 0.0 0.00 0.00 0.00 75 1016.3
20260502223046 49 0.0 0.0 0.00 0.00 0.00 73 1016.4
20260502222048 50 0.0 1.0 0.00 0.00 0.00 71 1016.5
20260502221047 51 0.0 0.0 0.00 0.00 0.00 70 1016.5
20260502220049 51 0.0 0.0 0.00 0.00 0.00 70 1016.5
20260502215109 52 0.0 0.0 0.00 0.00 0.00 69 1016.5
20260502214048 52 0.0 0.0 0.00 0.00 0.00 69 1016.6
20260502213049 52 0.0 0.0 0.00 0.00 0.00 70 1016.5
20260502212049 53 0.0 0.0 0.00 0.00 0.00 67 1016.5
20260502211050 55 0.0 0.0 0.00 0.00 0.00 63 1016.6
20260502210051 57 0.0 0.0 0.00 0.00 0.00 57 1016.7
20260502205051 59 0.0 0.0 0.00 0.00 0.00 52 1016.7
20260502204111 59 93 0.0 1.0 0.00 0.00 0.00 51 1016.8
20260502203051 60 0.0 0.0 0.00 0.00 0.00 50 1016.8
20260502202052 61 85 0.0 1.0 0.00 0.00 0.00 49 1016.8
20260502201053 61 0.0 0.0 0.00 0.00 0.00 49 1016.9
20260502200053 62 83 0.0 1.0 0.00 0.00 0.00 48 1016.9
20260502195053 62 0.0 0.0 0.00 0.00 0.00 48 1016.9
20260502194054 63 78 0.0 1.0 0.00 0.00 0.00 47 1016.7
20260502193054 63 93 0.0 1.0 0.00 0.00 0.00 46 1016.8
20260502192054 63 77 0.0 1.0 0.00 0.00 0.00 47 1016.7
20260502191055 62 0.0 0.0 0.00 0.00 0.00 47 1016.6
20260502190055 62 0.0 0.0 0.00 0.00 0.00 48 1016.7
20260502185055 63 0.0 0.0 0.00 0.00 0.00 47 1016.6
20260502184056 65 0.0 0.0 0.00 0.00 0.00 44 1016.6
20260502183057 66 0.0 0.0 0.00 0.00 0.00 43 1016.5
20260502182058 67 0.0 0.0 0.00 0.00 0.00 41 1016.4
20260502181057 68 0.0 0.0 0.00 0.00 0.00 41 1016.4
20260502170120 75 55 2.0 6.0 0.00 0.00 0.00 31 1016.3
20260502164101 76 106 1.0 3.0 0.00 0.00 0.00 30 1016.5
20260502163102 76 98 1.0 3.0 0.00 0.00 0.00 30 1016.6
20260502162103 76 94 1.0 2.0 0.00 0.00 0.00 29 1016.9
20260502161102 76 92 1.0 3.0 0.00 0.00 0.00 29 1016.9
20260502160104 76 83 1.0 2.0 0.00 0.00 0.00 28 1017.0
20260502152032 77 71 2.0 7.0 0.00 0.00 0.00 26 1017.4
20260502151032 78 134 1.0 5.0 0.00 0.00 0.00 26 1017.5
20260502123040 76 56 2.0 5.0 0.00 0.00 0.00 35 1019.6
20260502122040 75 119 2.0 8.0 0.00 0.00 0.00 36 1019.8
20260502121040 74 82 2.0 6.0 0.00 0.00 0.00 37 1019.9
20260502115101 74 36 2.0 5.0 0.00 0.00 0.00 37 1020.2
20260502114041 74 45 2.0 6.0 0.00 0.00 0.00 38 1020.3
20260502113042 74 26 2.0 6.0 0.00 0.00 0.00 38 1020.5
20260502112043 72 116 1.0 5.0 0.00 0.00 0.00 39 1020.5
20260502111043 72 48 2.0 5.0 0.00 0.00 0.00 42 1020.6
20260502110103 72 3 2.0 5.0 0.00 0.00 0.00 41 1020.8
20260502105044 72 64 2.0 3.0 0.00 0.00 0.00 41 1020.8
20260502104044 72 79 2.0 5.0 0.00 0.00 0.00 41 1021.0
20260502103045 71 114 2.0 5.0 0.00 0.00 0.00 42 1021.2
20260502102045 71 62 2.0 3.0 0.00 0.00 0.00 43 1021.2
20260502101106 70 23 2.0 3.0 0.00 0.00 0.00 43 1021.4
20260502091047 69 109 1.0 5.0 0.00 0.00 0.00 44 1022.0
20260502071053 56 152 2.0 6.0 0.00 0.00 0.00 60 1022.6
20260502070054 55 140 2.0 5.0 0.00 0.00 0.00 63 1022.5
20260502065055 53 135 2.0 6.0 0.00 0.00 0.00 63 1022.6